Location: Unspecified
(52.4292°N, 19.3359°E)
Time: 12:17:50
(UTC+02:00)

deb Explorer IX - Pass Details

Date: 27 May 2024
Orbit: 510 x 886 km, 38.7° (Epoch: 13 June)

Event Time Altitude Azimuth Distance (km) Brightness Sun altitude
Rises 23:14:28 0° 249° (WSW) 3,085 ? -13.8°
Reaches altitude 10° 23:18:15 10° 222° (SW) 2,065 ? -14.0°
Enters shadow 23:19:36 12° 206° (SSW) 1,874 ? -14.0°
